GW0882 Weather Reports


time (UTC)temp
C
wind
direction
speed
KPH
gust
KPH
rain 1hr
cm
rain 24hr
cm
rain mn
cm
humidity
%
barometer
mb
20260506094547 13 319 6.4 19.3 0.00 0.00 0.00 57 1012.6
20260506093039 13 319 3.2 16.1 0.00 0.00 0.00 56 1012.7
20260506091535 12 296 8.0 20.9 0.00 0.00 0.00 61 1012.5
20260506090035 10 325 8.0 20.9 0.00 0.00 0.00 68 1012.5
20260506084542 10 5 9.7 24.1 0.00 0.00 0.00 67 1012.5
20260506083037 10 0 4.8 19.3 0.00 0.00 0.00 70 1012.5
20260506081535 8 328 6.4 19.3 0.00 0.00 0.00 71 1012.6
20260506073040 8 29 6.4 17.7 0.00 0.00 0.00 72 1012.6
20260506071548 8 325 3.2 16.1 0.00 0.00 0.00 75 1012.5
20260506061539 7 321 3.2 14.5 0.00 0.00 0.00 80 1012.2
20260506044541 7 0 0.0 8.0 0.00 0.00 0.00 80 1012.0
20260506043036 7 316 3.2 12.9 0.00 0.00 0.00 80 1011.9
20260506041537 7 343 0.0 12.9 0.00 0.00 0.00 81 1011.8
20260506040042 8 340 1.6 6.4 0.00 0.00 0.00 80 1011.7
20260506034539 8 325 1.6 9.7 0.00 0.00 0.00 79 1011.8
20260506033037 8 0 0.0 3.2 0.00 0.00 0.00 79 1011.8
20260506031536 8 0 0.0 14.5 0.00 0.00 0.00 78 1011.7
20260506030037 8 0 0.0 16.1 0.00 0.00 0.00 78 1011.8
20260506024545 8 13 0.0 9.7 0.00 0.00 0.00 78 1011.9
20260506023038 8 24 1.6 12.9 0.00 0.00 0.00 78 1012.0
20260506021538 8 0 1.6 17.7 0.00 0.00 0.00 78 1012.0
20260506020036 8 331 0.0 12.9 0.00 0.00 0.00 77 1012.1
20260506014544 9 0 0.0 6.4 0.00 0.00 0.00 75 1012.1
20260506013040 9 0 1.6 9.7 0.00 0.00 0.00 75 1012.2
20260506011537 9 55 1.6 9.7 0.00 0.00 0.00 75 1012.2
20260506010036 9 44 0.0 11.3 0.00 0.00 0.00 75 1012.2
20260506004535 10 101 0.0 6.4 0.00 0.00 0.00 75 1012.3
20260506003042 10 11 0.0 12.9 0.00 0.00 0.00 76 1012.4
20260506001539 10 0 0.0 6.4 0.00 0.00 0.00 76 1012.4
20260506000040 10 270 3.2 14.5 0.00 0.00 0.00 77 1012.4
20260505234544 10 0 0.0 8.0 0.00 0.00 0.00 76 1012.4
20260505233036 10 0 0.0 12.9 0.00 0.00 0.00 74 1012.4
20260505231551 10 5 0.0 4.8 0.00 0.00 0.00 73 1012.5
20260505230053 10 0 0.0 4.8 0.00 0.00 0.00 72 1012.5
20260505224540 10 0 0.0 4.8 0.00 0.00 0.00 71 1012.5
20260505223036 10 0 0.0 3.2 0.00 0.00 0.00 70 1012.6
20260505221535 11 0 0.0 3.2 0.00 0.00 0.00 69 1012.6
20260505220033 11 0 0.0 11.3 0.00 0.00 0.00 68 1012.7
20260505214537 11 64 3.2 16.1 0.00 0.00 0.00 67 1012.4
20260505213047 11 0 1.6 12.9 0.00 0.00 0.00 64 1012.5
20260505211536 11 0 1.6 9.7 0.00 0.00 0.00 63 1012.5
20260505210037 11 33 0.0 8.0 0.00 0.00 0.00 62 1012.4
20260505204539 11 0 0.0 3.2 0.00 0.00 0.00 64 1012.3
20260505203039 12 28 0.0 11.3 0.00 0.00 0.00 63 1012.3
20260505201538 12 0 0.0 8.0 0.00 0.00 0.00 62 1012.2
20260505200036 12 0 1.6 14.5 0.00 0.00 0.00 61 1011.9
20260505194533 12 0 0.0 6.4 0.00 0.00 0.00 60 1011.7
20260505193039 12 0 0.0 6.4 0.00 0.00 0.00 60 1011.5
20260505191539 13 0 0.0 4.8 0.00 0.00 0.00 59 1011.3
20260505190036 13 47 1.6 8.0 0.00 0.00 0.00 59 1011.4
20260505184535 13 0 0.0 4.8 0.00 0.00 0.00 57 1011.2
20260505183038 13 71 0.0 8.0 0.00 0.00 0.00 57 1011.2
20260505181540 13 70 0.0 6.4 0.00 0.00 0.00 56 1011.2
20260505180047 14 0 1.6 16.1 0.00 0.00 0.00 56 1011.3
20260505174541 14 54 0.0 8.0 0.00 0.00 0.00 54 1011.3
20260505173035 15 0 3.2 16.1 0.00 0.00 0.00 53 1011.2
20260505171544 15 28 3.2 11.3 0.00 0.00 0.00 54 1011.2
20260505170040 15 60 3.2 12.9 0.00 0.00 0.00 51 1011.3
20260505164541 15 65 4.8 16.1 0.00 0.00 0.00 51 1011.2
20260505163034 15 88 3.2 12.9 0.00 0.00 0.00 50 1011.3
20260505161533 15 76 4.8 17.7 0.00 0.00 0.00 47 1011.4
20260505153036 16 62 4.8 16.1 0.00 0.00 0.00 44 1011.5
20260505151541 16 59 1.6 22.5 0.00 0.00 0.00 43 1011.5
20260505124541 17 80 4.8 16.1 0.00 0.00 0.00 50 1011.9
20260505123040 18 0 4.8 22.5 0.00 0.00 0.00 51 1011.9
20260505121539 17 0 1.6 22.5 0.00 0.00 0.00 55 1011.9
20260505120036 15 40 8.0 19.3 0.00 0.00 0.00 55 1012.0
20260505114541 16 0 0.0 25.7 0.00 0.00 0.00 55 1012.0
20260505113047 16 48 8.0 22.5 0.00 0.00 0.00 52 1012.2
20260505111537 16 40 4.8 19.3 0.00 0.00 0.00 58 1012.3
20260505101556 15 351 3.2 12.9 0.00 0.00 0.00 69 1012.3
20260505100055 13 0 1.6 17.7 0.00 0.00 0.00 69 1012.4